Weather History for Boulder City, NV

Change the Weather History Date:

Thursday, October 4, 2012

  Actual Average (KLAS) Record (KLAS)
Temperature  
Mean Temperature 78 °F 75 °F  
Max Temperature 91 °F 86 °F 100 °F (1947)
Min Temperature 64 °F 63 °F 43 °F (1940)
Degree Days  
Heating Degree Days 0 0  
Month to date heating degree days 0  
Since 1 July heating degree days 1  
Cooling Degree Days 12 10  
Month to date cooling degree days 42  
Year to date cooling degree days 3419  
Growing Degree Days 28 (Base 50)    
Moisture  
Dew Point 34 °F    
Average Humidity 22    
Maximum Humidity 40    
Minimum Humidity 11    
Precipitation  
Precipitation 0.00 in 0.00 in 0.11 in (2000)
Month to date precipitation 0.02  
Year to date precipitation 3.08  
Snow  
Snow 0.00 in 0.00 in 0.00 in ()
Month to date snowfall 0.0  
Since 1 July snowfall 0.0  
Since 1 September snowfall 0.0  
Snow Depth -    
Sea Level Pressure  
Sea Level Pressure 29.96 in    
Wind  
Wind Speed 4 mph (South)    
Max Wind Speed 12 mph    
Max Gust Speed 20 mph    
Visibility 10 miles    
Events      
T = Trace of Precipitation, MM = Missing Value Source: NWS Daily Summary

Daily Weather History Graph

Daily Weather History Graph

Search for Another Location

Airport:

Trip Planner

Search our weather history database for the weather conditions in past years. The results will help you decide how hot, cold, wet, or windy it might be!

Date:

Astronomy

Oct. 04, 2012 Rise Set
Actual Time 6:37 AM PDT 6:17 PM PDT
Civil Twilight 6:11 AM PDT 6:43 PM PDT
Nautical Twilight 5:42 AM PDT 7:13 PM PDT
Astronomical Twilight 5:12 AM PDT 7:42 PM PDT
Moon 9:05 PM PDT (10/4) 10:49 AM PDT (10/4)
Length of Visible Light 12h 31m
Length of Day
11h 40m
Waning Gibbous, 81% of the Moon is Illuminated
Oct 4
Waning Gibbous
Oct 8
Last Quarter
Oct 15
New
Oct 21
First Quarter
Oct 29
Full

Hourly Weather History & Observations

Time (PDT) Temp. Dew Point Humidity Pressure Visibility Wind Dir Wind Speed Gust Speed Precip Events Conditions
12:15 AM 75.2 °F 28.4 °F 18% 29.93 in 10.0 mi WNW 4.6 mph - N/A   Clear
12:35 AM 75.2 °F 32.0 °F 21% 29.93 in 10.0 mi WNW 5.8 mph - N/A   Clear
12:55 AM 77.0 °F 28.4 °F 17% 29.94 in 10.0 mi WSW 3.5 mph - N/A   Clear
1:15 AM 71.6 °F 35.6 °F 27% 29.94 in 10.0 mi ENE 3.5 mph - N/A   Clear
1:35 AM 68.0 °F 39.2 °F 35% 29.94 in 10.0 mi North 4.6 mph - N/A   Clear
1:55 AM 69.8 °F 35.6 °F 28% 29.94 in 10.0 mi Calm Calm - N/A   Clear
2:15 AM 69.8 °F 37.4 °F 31% 29.94 in 10.0 mi NNE 3.5 mph - N/A   Clear
2:35 AM 68.0 °F 35.6 °F 30% 29.94 in 10.0 mi North 3.5 mph - N/A   Clear
2:55 AM 66.2 °F 41.0 °F 40% 29.94 in 10.0 mi NNE 6.9 mph - N/A   Clear
3:15 AM 69.8 °F 37.4 °F 31% 29.94 in 10.0 mi NE 4.6 mph - N/A   Clear
3:35 AM 68.0 °F 35.6 °F 30% 29.95 in 10.0 mi NNE 5.8 mph - N/A   Clear
3:55 AM 68.0 °F 35.6 °F 30% 29.95 in 10.0 mi Calm Calm - N/A   Clear
4:15 AM 66.2 °F 37.4 °F 35% 29.95 in 10.0 mi Calm Calm - N/A   Clear
4:35 AM 69.8 °F 35.6 °F 28% 29.95 in 10.0 mi Calm Calm - N/A   Clear
4:55 AM 66.2 °F 37.4 °F 35% 29.95 in 10.0 mi Calm Calm - N/A   Clear
5:15 AM 71.6 °F 33.8 °F 25% 29.96 in 10.0 mi East 3.5 mph - N/A   Clear
5:35 AM 66.2 °F 35.6 °F 32% 29.96 in 10.0 mi Calm Calm - N/A   Clear
5:55 AM 64.4 °F 37.4 °F 37% 29.97 in 10.0 mi Calm Calm - N/A   Clear
6:15 AM 64.4 °F 35.6 °F 34% 29.97 in 10.0 mi Calm Calm - N/A   Clear
6:35 AM 64.4 °F 37.4 °F 37% 29.98 in 10.0 mi Calm Calm - N/A   Clear
6:55 AM 64.4 °F 37.4 °F 37% 29.98 in 10.0 mi North 3.5 mph - N/A   Clear
7:15 AM 64.4 °F 37.4 °F 37% 29.98 in 10.0 mi Calm Calm - N/A   Clear
7:35 AM 68.0 °F 37.4 °F 33% 29.99 in 10.0 mi NNW 3.5 mph - N/A   Clear
7:55 AM 71.6 °F 39.2 °F 31% 30.00 in 10.0 mi NNE 4.6 mph - N/A   Clear
8:15 AM 73.4 °F 37.4 °F 27% 30.00 in 10.0 mi Calm Calm - N/A   Clear
8:35 AM 75.2 °F 37.4 °F 25% 30.01 in 10.0 mi Calm Calm - N/A   Clear
8:55 AM 77.0 °F 32.0 °F 19% 30.02 in 10.0 mi Calm Calm - N/A   Clear
9:15 AM 78.8 °F 32.0 °F 18% 30.02 in 10.0 mi ESE 3.5 mph - N/A   Clear
9:35 AM 80.6 °F 32.0 °F 17% 30.02 in 10.0 mi SE 3.5 mph - N/A   Clear
9:55 AM 82.4 °F 32.0 °F 16% 30.03 in 10.0 mi SSE 5.8 mph - N/A   Clear
10:15 AM 82.4 °F 32.0 °F 16% 30.03 in 10.0 mi ESE 4.6 mph - N/A   Clear
10:35 AM 84.2 °F 32.0 °F 15% 30.03 in 10.0 mi Calm Calm - N/A   Clear
10:55 AM 84.2 °F 32.0 °F 15% 30.03 in 10.0 mi South 4.6 mph - N/A   Clear
11:35 AM 84.2 °F 32.0 °F 15% 30.02 in 10.0 mi SE 5.8 mph - N/A   Clear
11:55 AM 86.0 °F 32.0 °F 14% 30.01 in 10.0 mi Calm Calm - N/A   Clear
12:15 PM 86.0 °F 32.0 °F 14% 30.00 in 10.0 mi East 3.5 mph - N/A   Clear
12:35 PM 89.6 °F 32.0 °F 13% 29.99 in 10.0 mi South 5.8 mph - N/A   Clear
12:55 PM 89.6 °F 32.0 °F 13% 29.98 in 10.0 mi SSE 8.1 mph 19.6 mph N/A   Clear
1:15 PM 89.6 °F 32.0 °F 13% 29.97 in 10.0 mi WNW 5.8 mph - N/A   Clear
1:35 PM 91.4 °F 32.0 °F 12% 29.97 in 10.0 mi South 5.8 mph - N/A   Clear
1:55 PM 89.6 °F 32.0 °F 13% 29.97 in 10.0 mi SSW 3.5 mph 19.6 mph N/A   Clear
2:15 PM 89.6 °F 32.0 °F 13% 29.96 in 10.0 mi South 9.2 mph - N/A   Clear
2:35 PM 89.6 °F 32.0 °F 13% 29.95 in 10.0 mi South 11.5 mph - N/A   Clear
2:55 PM 91.4 °F 32.0 °F 12% 29.95 in 10.0 mi South 6.9 mph - N/A   Clear
3:15 PM 91.4 °F 32.0 °F 12% 29.94 in 10.0 mi SSE 11.5 mph 16.1 mph N/A   Clear
3:55 PM 91.4 °F 32.0 °F 12% 29.93 in 10.0 mi SSE 10.4 mph - N/A   Clear
4:15 PM 91.4 °F 32.0 °F 12% 29.92 in 10.0 mi SSE 10.4 mph 16.1 mph N/A   Clear
4:35 PM 91.4 °F 32.0 °F 12% 29.92 in 10.0 mi SSE 10.4 mph - N/A   Clear
4:55 PM 91.4 °F 32.0 °F 12% 29.92 in 10.0 mi SSE 11.5 mph - N/A   Clear
5:15 PM 91.4 °F 30.2 °F 11% 29.92 in 10.0 mi SW 6.9 mph - N/A   Clear
5:35 PM 89.6 °F 28.4 °F 11% 29.92 in 10.0 mi SW 11.5 mph - N/A   Clear
5:55 PM 89.6 °F 30.2 °F 12% 29.92 in 10.0 mi SW 10.4 mph - N/A   Clear
6:15 PM 86.0 °F 30.2 °F 13% 29.92 in 10.0 mi WSW 6.9 mph - N/A   Clear
6:35 PM 84.2 °F 30.2 °F 14% 29.92 in 10.0 mi WSW 8.1 mph - N/A   Clear
6:55 PM 84.2 °F 28.4 °F 13% 29.93 in 10.0 mi WSW 8.1 mph - N/A   Clear
7:15 PM 82.4 °F 28.4 °F 14% 29.93 in 10.0 mi WSW 5.8 mph - N/A   Clear
7:35 PM 82.4 °F 30.2 °F 15% 29.94 in 10.0 mi South 4.6 mph - N/A   Clear
7:55 PM 80.6 °F 32.0 °F 17% 29.94 in 10.0 mi ESE 4.6 mph - N/A   Clear
8:15 PM 77.0 °F 37.4 °F 24% 29.94 in 10.0 mi Calm Calm - N/A   Clear
8:35 PM 78.8 °F 32.0 °F 18% 29.94 in 10.0 mi SE 4.6 mph - N/A   Clear
8:55 PM 73.4 °F 39.2 °F 29% 29.94 in 10.0 mi Calm Calm - N/A   Clear
9:15 PM 77.0 °F 32.0 °F 19% 29.95 in 10.0 mi Calm Calm - N/A   Clear
9:35 PM 78.8 °F 32.0 °F 18% 29.95 in 10.0 mi Calm Calm - N/A   Clear
9:55 PM 75.2 °F 35.6 °F 24% 29.95 in 10.0 mi Calm Calm - N/A   Clear
10:15 PM 71.6 °F 37.4 °F 29% 29.96 in 10.0 mi Calm Calm - N/A   Clear
10:35 PM 69.8 °F 39.2 °F 33% 29.96 in 10.0 mi Calm Calm - N/A   Clear
10:55 PM 71.6 °F 39.2 °F 31% 29.96 in 10.0 mi Calm Calm - N/A   Clear
11:15 PM 71.6 °F 37.4 °F 29% 29.96 in 10.0 mi Calm Calm - N/A   Clear
11:35 PM 75.2 °F 32.0 °F 21% 29.96 in 10.0 mi South 4.6 mph - N/A   Clear
11:55 PM 77.0 °F 32.0 °F 19% 29.96 in 10.0 mi Calm Calm - N/A   Clear